Regional Weather Roundup
Issued by NWS Charleston, SC

Current Version | Previous Version | Graphics & Text | Print | Product List | Glossary On
Versions: 1 2 3 4 5 6 7 8 9 10 11 12 13 14 15 16 17 18 19 20 21 22 23 24 25 26 27 28 29 30 31 32 33 34 35 36 37 38 39 40 41 42 43 44 45 46 47 48 49 50
000 ASUS42 KCHS 240428 RWRCHS REGIONAL WEATHER ROUNDUP NATIONAL WEATHER SERVICE CHARLESTON SC 1200 AM EDT WED AUG 24 2016 NOTE: "FAIR" INDICATES FEW OR NO CLOUDS BELOW 12,000 FEET WITH NO SIGNIFICANT WEATHER AND/OR OBSTRUCTIONS TO VISIBILITY. NOT ALL STATIONS ARE QUALITY CONTROLLED. USE DATA WITH CAUTION... ESPECIALLY DEWPOINT OBSERVATIONS. SCZ027-030-031-034>040-042>050-240500- ...SOUTHEAST SOUTH CAROLINA... CITY SKY/WX TMP DP RH WIND PRES REMARKS N CHARLESTON PTCLDY 75 68 78 NE5 30.24R WATERFRONT PRK N/A 83 72 69 E7 30.21R MOUNT PLEASANT FAIR 73 70 88 CALM 30.24S JOHNS ISLAND FAIR 79 70 73 E6 30.23F PINOPOLIS N/A 77 70 78 CALM 30.18R MONCKS CORNER FAIR 70 68 94 CALM 30.24F SUMMERVILLE FAIR 72 72 100 CALM 30.25F BEAUFORT MCAS CLEAR 79 70 74 NE3 30.23S BEAUFORT ARPT FAIR 79 72 78 E6 30.22S HILTON HEAD IS PTCLDY 82 72 69 VRB6 30.22F WALTERBORO CLEAR 73 73 100 E5 30.24F ALLENDALE FAIR 77 72 83 CALM 30.23S ...SOUTHERN MIDLANDS AND PEE DEE... CITY SKY/WX TMP DP RH WIND PRES REMARKS GEORGETOWN FAIR 72 66 83 CALM 30.26S KINGSTREE FAIR 68 64 88 CALM 30.25F ORANGEBURG PTCLDY 76 69 79 CALM 30.25S BARNWELL NOT AVBL AIKEN LGT RAIN 79 70 73 CALM 30.30S MANNING FAIR 70 68 94 CALM 30.26S COLUMBIA PTCLDY 80 69 69 S5 30.25R SUMTER CLEAR 75 68 77 SE5 30.24S FLORENCE CLEAR 73 67 81 CALM 30.26S MYRTLE BEACH PTCLDY 81 63 54 E8 30.27S N MYRTLE BEACH PTCLDY 75 67 76 NE6 30.25R $$ GAZ063-065-086>088-099>101-113>116-118-119-134>141-150-240500- ...SOUTHEAST GEORGIA... CITY SKY/WX TMP DP RH WIND PRES REMARKS SAVANNAH ARPT MOCLDY 79 71 76 E5 30.22F HUNTER AAF PTCLDY 80 76 89 E3 30.19S FORT STEWART CLOUDY 77 74 91 CALM 30.19S STATESBORO PTCLDY 78 75 92 CALM 30.23S SYLVANIA PTCLDY N/A N/A N/A CALM 30.24S CLAXTON FAIR 75 75 100 CALM 30.22S ...CSRA...CENTRAL AND FAR SOUTHEAST GEORGIA... CITY SKY/WX TMP DP RH WIND PRES REMARKS THOMSON MOCLDY 81 76 84 MISG 30.29S AUGUSTA-BUSH CLOUDY 79 72 79 SE5 30.24R AUGUSTA-DANIEL MOCLDY 82 70 66 SE7 30.26R SWAINSBORO MOCLDY 77 73 88 CALM 30.24S VIDALIA PTCLDY 77 77 100 CALM 30.23S EASTMAN FAIR 76 76 100 CALM 30.25S FOG HAZLEHURST FAIR 76 76 100 CALM 30.21S ALMA PTCLDY 75 74 96 CALM 30.21R WAYCROSS N/A 78 78 100 CALM 30.20S JESUP FAIR 77 77 100 CALM 30.21S BAXLEY FAIR 77 77 100 CALM 30.21S BRUNSWICK PTCLDY 77 77 100 CALM 30.20S SAINT SIMONS CLOUDY 84 73 69 E10 30.19S HX 90 $$ SCZ027-028-034-036>038-045-046-048>050-GAZ119-141-240500- ...LAKE AND SUPPLEMENTAL COASTAL OBSERVATIONS... STATION/POSITION TIME TEMP WIND PRES WAVE SWELL AIR SEA DIR/SP/G HT/PER HT/PER/DIR (UTC) (F) (DEG/KT/KT) (MB) (FT/S) (FT/S/D) WINYAH BAY 0345 82 90/ 7 1023.0S LAKE MURRAY 0300 82 100/ 5/ 10 1023.4R ACE BASIN NERRS 0300 77 CALM 1024.0R FORT PULASKI 0400 83 87 90/ 10/ 13 1023.5F SAPELO ISLAND 0400 83 70/ 6 1023.0S $$ ANZ835-935-AMZ111-154-330-350-352-354-370-450-454-472-240500- ...C-MAN AND BUOY OBSERVATIONS... STATION/POSITION TIME TEMP WIND PRES WAVE SWELL AIR SEA DIR/SP/G HT/PER HT/PER/DIR (UTC) (F) (DEG/KT/KT) (MB) (FT/S) (FT/S/D) BUOY 41004 0350 83 85 70/ 12/ 16 1022.7R 4/ 7 2/ 90/ 7 BUOY 41008 0350 84 85 90/ 12/ 14 1022.1S 3/ 5 2/100/ 6 FOLLY BEACH CMAN 0400 83 80/ 11/ 13 1023.9R CAPERS NEARSHORE 0308 83 85 90/ 12/ 16 1023.4R FRIPP NEARSHORE 0308 83 87 100/ 12/ 16 1022.5F STATION/POSITION TIME TEMP WIND PRES WAVE SWELL AIR SEA DIR/SP/G HT/PER HT/PER/DIR (UTC) (F) (DEG/KT/KT) (MB) (FT/S) (FT/S/D) 5E ST. MARYS GA 0401 84 N/A 3/ 5 FRYING PAN BUOY 0400 82 85 60/ 17/ 21 1023.4S BUOY 41025 0350 79 84 20/ 12/ 14 1024.4F 3/ 6 2/ 30/ 6 CAPE LOOKOUT NC 0400 78 50/ 15/ 17 1024.6F BUOY 41002 0350 83 85 70/ 16/ 17 1021.4R 5/ 5 2/110/13 BUOY 41010 NOT AVBL ST AUGUSTINE FL 0400 83 83 70/ 12/ 14 1022.1F $$

USA.gov is the U.S. government's official web portal to all federal, state and local government web resources and services.